Orbital Elements at Epoch 2459200.5 (2020-Dec-17.0) TDB
Reference: JPL 11 (heliocentric ecliptic J2000)
Element | Value | Uncertainty (1-sigma) | Units |
e | .1579822704298026 | 4.5982e-08 | |
a | 2.440671714568876 | 2.3618e-08 | au |
q | 2.055088855727485 | 1.1831e-07 | au |
i | 2.328846410475691 | 5.46e-06 | deg |
node | 83.41170661997371 | 0.00020658 | deg |
peri | 354.2882326525272 | 0.00020924 | deg |
M | 56.02605467996491 | 3.6038e-05 | deg |
tp | 2458983.754535225445 (2020-May-14.25453523) | 0.00013798 | TDB |
period | 1392.715724220773 3.81 | 2.0216e-05 5.535e-08 | d yr |
n | .2584877830696 | 3.752e-09 | deg/d |
Q | 2.826254573410266 | 2.7349e-08 | au |
|
| | Orbit Determination Parameters
Additional Information
|